User: anonymous   Login
Location: Newark
(45.4422°N, 16.2769°E)
Time: 19:20:00
(UTC+00:00)
Language:

Tiros 1 - Orbit

View from above orbital plane
View from above orbital plane
View from above satellite
View from above satellite

Ground track
Ground track

The orbit data is extracted from the following two-line orbital elements,

1    29U 60002B   19347.82202776 -.00000141 +00000-0 +99887-5 0  9990
2    29 048.3794 109.3719 0023992 155.1248 205.0826 14.74332945191005
Epoch (UTC): 13 December 2019 19:43:43
Eccentricity: 0.0023992
inclination: 48.3794°
perigee height: 630 km
apogee height: 664 km
right ascension of ascending node: 109.3719°
argument of perigee: 155.1248°
revolutions per day: 14.74332945
mean anomaly at epoch: 205.0826°
orbit number at epoch: 19100

The dashed part of the orbit path shows where the satellite is in the earth's shadow,  

DLR